Location: Godiavel Galaoual
(15.2485°N, 12.6604°W)
Time: 02:19:28
(UTC+00:00)

N. Korean satellite - Pass Details

Date: 07 December 2021
Orbit: 447 x 491 km, 97.3° (Epoch: 22 January)

Event Time Altitude Azimuth Distance (km) Brightness Sun altitude
Rises 05:05:17 0° 37° (NE) 2,440 10.4 -27.8°
Reaches altitude 10° 05:07:59 10° 62° (ENE) 1,572 9.7 -27.2°
Maximum altitude 05:09:58 15° 99° (E) 1,306 9.6 -26.7°
Drops below altitude 10° 05:11:58 10° 135° (SE) 1,581 10.0 -26.3°
Sets 05:14:41 0° 159° (SSE) 2,461 10.7 -25.6°
